www.pogodaiklimat.ru

Погода и климат >> Архив погоды >> Мадагаскар >> Толанаро


ПОГОДА в Толанаро

  • Прогноз погоды в Толанаро
  • Монитор погоды в Толанаро

АРХИВ ПОГОДЫ в Толанаро

Время (UTC), дата Ветер
(напр.,м/с)
 
Видим.   Явления Облачность Т
(С)
Тd
(С)
f
(%)
Тe
(С)
Тes
(С)
Комфортность P
(гПа)
Po
(гПа)
Тmin
(С)
Tmax
(С)
R
(мм)
R24
(мм)
S
(см)
03 10.09 В 8 20 км 5/5 480 м
[Cu Sc]
+19.0 +15.6 81 +20 +20 1020.1 1019.1
06 10.09 В 10 30 км 4/4 600 м
[Cu Sc]
+22.8 +16.8 69 +28 +28 душно 1020.3 1019.3 +18.5 +24.0
09 10.09 В 10 30 км 3/3 600 м
[Cu Sc]
+25.2 +18.1 65 +30 +30 душно 1018.6 1017.6
12 10.09 В 10 30 км 1/1 600 м
[Cu Sc]
+24.3 +18.4 70 +29 +29 душно 1016.7 1015.7
15 10.09 В 11 25 км 3/3 480 м
[Cu Sc]
+21.5 +18.4 83 +26 +26 душно 1017.0 1016.0 +25.5
18 10.09 В 10 20 км 4/4 480 м
[Cu Sc]
+21.4 +17.5 78 +25 +25 комфорт 1017.8 1016.8 +25.5
21 10.09 В 5 20 км 4/4 480 м
[Cu Sc]
+22.0 +16.3 70 +26 +26 душно 1017.8 1016.8
00 11.09 В 5 15 км осадки на расстоянии 6/6 540 м
[Cu Sc]
+21.1 +16.0 73 +24 +24 комфорт 1017.0 1016.0
03 11.09 В 7 20 км {дождь} 4/4 480 м
[Cu Sc]
+20.0 +18.0 88 +23 +23 комфорт 1017.2 1016.2
06 11.09 В 10 30 км {дождь} 1/1 600 м
[Cu Sc]
+24.2 +17.0 64 +28 +28 душно 1017.9 1016.9 +19.8 +25.5 0.1
09 11.09 В 10 30 км 1/1 600 м
[Cu Sc]
+26.4 +18.0 60 +31 +32 душно 1017.0 1016.0
12 11.09 В 11 30 км 3/1 700 м
[Cb calv Ac trans Ci sp]
+26.0 +20.1 70 +32 +32 очень
душно
1015.6 1014.6
15 11.09 СВ 8 10 км гроза без осадков 8/6 480 м
[Cb cap Ac trans Ci ing]
+23.4 +20.3 83 +31 +31 очень
душно
1016.6 1015.6 +26.7
18 11.09 СВ 9 20 км в посл. час гроза 5/5 480 м
[Cu Sc]
+22.5 +20.0 86 +29 +29 очень
душно
1018.7 1017.7 +26.7
21 11.09 В 8 20 км 5/5 480 м
[Cu Sc]
+22.6 +18.8 79 +28 +28 душно 1018.7 1017.7
00 12.09 В 6 20 км 4/4 480 м
[Cu Sc]
+21.2 +18.5 85 +26 +26 душно 1017.6 1016.6
03 12.09 В 7 25 км 1/1 480 м
[Cu Sc]
+20.2 +18.3 89 +23 +23 комфорт 1017.6 1016.6
06 12.09 СВ 7 30 км 3/1 600 м
[Cu Sc Ac trans]
+25.0 +19.6 72 +30 +32 душно 1018.3 1017.3 +19.7 +26.7
09 12.09 СВ 7 30 км 1/1 600 м
[Cu Sc]
+27.2 +20.6 67 +34 +38 очень
душно
1017.6 1016.6
12 12.09 В 10 30 км 3/3 600 м
[Cu Sc]
+26.1 +20.7 72 +33 +33 очень
душно
1016.4 1015.4
15 12.09 В 9 20 км 4/4 480 м
[Cu Sc]
+23.1 +19.9 82 +30 +30 очень
душно
1017.2 1016.2 +27.3
18 12.09 СВ 9 20 км 3/3 1000 м
[Sc]
+23.2 +20.8 86 +31 +31 очень
душно
1018.4 1017.4 +27.3
21 12.09 В 7 20 км 3/3 1000 м
[Sc]
+22.3 +20.3 88 +29 +29 очень
душно
1018.7 1017.7
00 13.09 В 7 20 км 1/1 1000 м
[St Ac trans Ci ing]
+22.0 +20.2 90 +28 +28 душно 1017.5 1016.5
03 13.09 В 7 30 км 1/1 1000 м
[Sc]
+21.4 +19.0 86 +26 +26 душно 1018.0 1017.0
06 13.09 В 8 30 км 1/1 600 м
[Cu med, cong]
+25.0 +18.8 68 +30 +31 душно 1018.5 1017.5 +21.4 +27.3
09 13.09 В 10 30 км 1/1 600 м
[Cu med, cong]
+27.5 +19.0 60 +33 +34 очень
душно
1017.0 1016.0
12 13.09 В 10 30 км 3/3 600 м
[Cu med, cong]
+27.1 +18.9 61 +32 +33 очень
душно
1014.9 1013.9
15 13.09 В 10 30 км 3/3 600 м
[Cu med, cong]
+23.6 +19.6 78 +29 +29 душно 1014.9 1013.9 +28.2
18 13.09 В 7 20 км 6/6 480 м
[Cu Sc]
+22.8 +18.4 76 +28 +28 душно 1015.6 1014.6 +28.2
21 13.09 В 4 20 км 4/4 480 м
[Cu Sc]
+21.5 +18.8 85 +26 +26 душно 1015.3 1014.3
00 14.09 штиль 0 20 км 1/1 480 м
[Cu Sc]
+18.5 +16.9 90 +19 +19 1015.3 1014.3
03 14.09 СЗ 1 20 км 3/3 480 м
[Cu Sc]
+18.5 +17.7 95 +20 +20 1016.8 1015.8
06 14.09 ЮВ 2 30 км ясно +24.5 +19.1 72 +29 +39 душно 1017.8 1016.8 +17.0 +28.2
09 14.09 Ю 4 30 км ясно +27.0 +16.4 52 +30 +42 душно 1017.0 1016.0
12 14.09 В 4 30 км ясно +27.9 +18.1 55 +32 +38 душно 1015.9 1014.9
15 14.09 ЮЗ 2 25 км 1/1 600 м
[Cu med, cong]
+23.0 +19.6 81 +30 +30 очень
душно
1017.3 1016.3 +28.0
18 14.09 штиль 0 20 км ясно +20.0 +18.4 91 +23 +23 комфорт 1018.7 1017.7 +28.0
21 14.09 штиль 0 20 км ясно +18.0 +17.2 95 +18 +18 1018.1 1017.1
00 15.09 СЗ 3 20 км 1/1 480 м
[Cu Sc]
+16.5 +16 +16 1017.5 1016.5
03 15.09 СЗ 1 20 км 1/1 480 м
[Cu Sc]
+17.5 +14.9 85 +19 +19 1018.9 1017.9
06 15.09 СЗ 2 30 км 1/1 600 м
[Cu med, cong]
+23.5 +19.0 76 +28 +37 душно 1020.1 1019.1 +17.3 +28.0
09 15.09 З 1 30 км 1/1 600 м
[Cu med, cong]
+26.5 +17.0 56 +30 +49 душно 1018.7 1017.7
12 15.09 ЮЗ 3 30 км 4/4 600 м
[Cu Sc]
+25.0 +20.8 78 +31 +35 очень
душно
1018.1 1017.1
15 15.09 Ю 2 20 км 4/4 480 м
[Cu Sc]
+23.1 +21.0 88 +31 +31 очень
душно
1019.3 1018.3 +26.5
18 15.09 ЮЗ 1 20 км в посл. час переохл. осадки (гололёд) 9/9 480 м
[Cu Sc]
+22.5 +19.4 83 +29 +29 очень
душно
1020.0 1019.0 +26.5
21 15.09 ЮЗ 1 20 км 9/9 480 м
[Cu Sc]
+22.0 +18.0 78 +27 +27 душно 1020.3 1019.3
00 16.09 штиль 0 20 км 9/9 480 м
[Cu Sc]
+21.2 +18.4 84 +25 +25 комфорт 1019.2 1018.2
03 16.09 штиль 0 20 км 9/9 480 м
[]
+21.1 +17.9 82 +25 +25 комфорт 1019.1 1018.1
06 16.09 СЗ 1 20 км 9/9 480 м
[Cu Sc]
+22.6 +19.0 80 +28 +30 душно 1020.0 1019.0 +20.9 +26.5
09 16.09 В 3 20 км в посл. час ливневой дождь 9/9 600 м
[Cu Sc]
+22.5 +18.6 79 +28 +30 душно 1019.4 1018.4 0.0
12 16.09 Ю 1 20 км 9/9 480 м
[Cu Sc]
+22.5 +16.8 70 +27 +28 душно 1018.8 1017.8
15 16.09 ЮВ 1 15 км в посл. час дождь 9/9 480 м
[Cu Sc]
+20.8 +17.9 83 +26 +26 душно 1019.5 1018.5 +23.0 0.1
18 16.09 ЮВ 3 20 км {ливн. осадки, дождь} 9/9 480 м
[Cu Sc]
+21.4 +17.4 78 +25 +25 комфорт 1020.7 1019.7 +23.0 0.4
21 16.09 ЮВ 2 20 км 9/9 480 м
[Cu Sc]
+20.7 +17.8 83 +25 +25 комфорт 1021.1 1020.1 0.3
00 17.09 СВ 2 10 км слаб. дождь 9/9 300 м
[Cu Sc]
+18.8 +17.9 95 +21 +21 комфорт 1020.4 1019.4 3

 

Местоположение метеостанции Толанаро (Мадагаскар): широта -25.03 долгота 46.95 высота над уровнем моря 9 м.

В архиве по умолчанию представлена погода в Толанаро за последнюю неделю. Архивные данные за месяц целиком и за предыдущие месяцы, начиная с января 2011 года, Вы можете получить, выбрав интересующий диапазон дат из раскрывающегося списка и нажав кнопку "Ввод!".


*Определитесь, кто Вы:
робот инопланетянин человек

Внимание! Время в таблицах - всемирное. Для получения местного времени необходимо прибавить поправку, которая равна 3 ч.

Смотрите также архив погоды в соседних городах и на ближайших метеорологических станциях:

Погода в Раноайре (Мадагаскар) (166 км)
Погода в Фарафангане (Мадагаскар) (264 км)
Погода в Тулиаре (Мадагаскар) (375 км)
Погода в Фианаранцуа (Мадагаскар) (398 км)
Погода в Манандзари (Мадагаскар) (408 км)
Погода в Моромбе (Мадагаскар) (516 км)
Погода в Анцирабе (Мадагаскар) (581 км)
Погода в Мурундаве (Мадагаскар) (593 км)
Погода в Мааноро (Мадагаскар) (609 км)
Погода в Антананариву (Мадагаскар) (687 км)

Пояснения к столбцам:

Ветер - указаны скорость ветра в м/с - средняя за 10 мин, порывы в срок и между сроками (в фигурных скобках) и направление, откуда дует ветер: С - северный, СВ - северо-восточный, В - восточный, ЮВ - юго-восточный, Ю - южный, ЮЗ - юго-западный, З - западный, СЗ - северо-западный.
Видимость - горизонтальная дальность видимости в метрах или километрах. При видимости от 1 до 10 км при отсутствии осадков обычно наблюдается дымка, при ухудшении видимости до 1 км и менее - туман. В сухую погоду видимость может ухудшаться дымом, пылью или мглою.
Явления - указаны атмосферные явления, наблюдавшиеся в срок или в последний час перед сроком; фигурными скобками обозначены явления, наблюдавшиеся между сроками (за 1-3 часа до срока); квадратными скобками обозначены град или гололедные отложения с указанием их диаметра в мм.
Облачность - указаны через наклонную черту общая и нижняя облачность в баллах и высота нижней границы облаков в метрах; квадратными скобками обозначены формы облаков: Ci - перистые, Cs - перисто-слоистые, Cc - перисто-кучевые, Ac - высококучевые, As - высокослоистые, Sc - слоисто-кучевые, Ns - слоисто-дождевые, Cu - кучевые, Cb - кучево-дождевые. Подробнее классификацию облаков см. в Атласе облаков (PDF).
T - Температура воздуха - температура, измеренная на высоте 2 м над землей.
Td - Температура точки росы - температура, при понижении до которой содержащийся в воздухе водяной пар достигнет насыщения.
f - Относительная влажность воздуха - влажноcть воздуха, измеренная на высоте 2 м над землей.
Te - Эффективная температура - температура, которую ощущает одетый по сезону человек в тени. Характеристика душности погоды. При расчете учитывается влияние влажности воздуха и скорости ветра на теплоощущения человека.
Tes - Эффективная температура на солнце - температура, которую ощущает человек, с поправкой на солнечный нагрев. Характеристика знойности погоды. Зависит от высоты солнца над горизонтом, облачности и скорости ветра. Ночью, в пасмурную погоду, а также при ветре 12 м/с и более поправка равна нулю.
P - Атмосферное давление - приведенное к уровню моря атмосферное давление.
Po - Атмосферное давление - измеренное на уровне метеостанции атмосферное давление.
Tmin - Минимальная температура - минимум температуры воздуха на высоте 2 м над землей.
Tmax - Максимальная температура - максимум температуры воздуха на высоте 2 м над землей.
R - Количество осадков - Количество выпавших осадков за период времени, мм. При наведении курсора мыши на число - период времени, за который выпало указанное количество осадков.
R24 - Количество осадков - Количество выпавших осадков за 24 часа, мм.
S - Снежный покров - Высота снежного покрова, см. При наведении курсора мыши на число - состояние снежного покрова и степень покрытия местности в баллах.